Burlington Regional Airport
Monday 9:53 PM
Temperature74° (80°/64°)
Dew Point62°
Relative Humidity67
%
Visibility10
mi
Pressure1014.6
mb
Wind DirectionSSW
200°
Wind Speed15
mph
(G24)
Precipitation TodayTrace

Last 30 Observations

Time PresWx Temp DP Feels RH% Vsby Pressure Ceiling Direction Speed 1h Precip
9:53 PM 74° 62° 66
%
10
mi
1014.6
mb
SSW
200°
15
mph
0.00"
8:53 PM 76° 61° 60
%
10
mi
1014.6
mb
SSW
200°
16
mph
0.00"
7:53 PM 78° 60° 54
%
10
mi
1014.9
mb
SSW
200°
14
mph
(G26)
0.00"
6:53 PM 78° 62° 58
%
10
mi
1015.2
mb
SSW
200°
15
mph
(G26)
0.00"
5:53 PM 78° 60° 54
%
10
mi
1015.6
mb
S
180°
17
mph
(G28)
0.00"
4:53 PM 78° 60° 54
%
10
mi
1016.6
mb
S
190°
17
mph
(G30)
0.00"
3:53 PM 79° 61° 54
%
10
mi
1017.3
mb
S
190°
20
mph
0.00"
2:53 PM 78° 60° 54
%
10
mi
1018.3
mb
S
190°
16
mph
0.00"
1:53 PM 77° 59° 54
%
10
mi
1019.3
mb
S
180°
20
mph
(G26)
0.00"
12:53 PM 77° 60° 56
%
10
mi
1020.0
mb
S
180°
18
mph
(G26)
0.00"
11:53 AM 72° 58° 61
%
10
mi
1021.3
mb
S
170°
14
mph
(G24)
0.00"
10:53 AM 69° 56° 63
%
10
mi
1022.0
mb
S
180°
13
mph
(G21)
0.00"
9:53 AM 67° 54° 63
%
10
mi
1022.0
mb
12,000
ft
S
180°
11
mph
0.00"
8:53 AM 66° 53° 63
%
10
mi
1022.0
mb
12,000
ft
S
180°
14
mph
0.00"
7:53 AM 66° 52° 61
%
10
mi
1022.0
mb
S
180°
11
mph
(G23)
0.00"
6:53 AM 66° 52° 61
%
10
mi
1021.7
mb
S
180°
14
mph
0.00"
5:53 AM 64° 53° 67
%
10
mi
1021.7
mb
11,000
ft
S
170°
9
mph
0.00"
4:53 AM 65° 53° 65
%
10
mi
1022.0
mb
11,000
ft
S
170°
8
mph
0.00"
3:53 AM 66° 52° 61
%
10
mi
1022.4
mb
10,000
ft
S
180°
13
mph
0.00"
2:53 AM 66° 52° 61
%
10
mi
1022.7
mb
12,000
ft
S
180°
9
mph
0.00"
1:53 AM 66° 51° 59
%
10
mi
1022.7
mb
SSE
160°
8
mph
0.00"
12:53 AM 68° 48° 49
%
10
mi
1022.7
mb
12,000
ft
SE
140°
8
mph
0.00"
11:53 PM 69° 49° 49
%
10
mi
1022.7
mb
12,000
ft
SE
140°
7
mph
0.00"
10:53 PM 70° 49° 47
%
10
mi
1022.7
mb
11,000
ft
SE
140°
6
mph
0.00"
9:53 PM 69° 50° 51
%
10
mi
1022.4
mb
11,000
ft
E
100°
6
mph
0.00"
8:53 PM 71° 48° 44
%
10
mi
1022.4
mb
12,000
ft
SSE
150°
5
mph
0.00"
7:53 PM 74° 44° 34
%
10
mi
1022.7
mb
11,000
ft
Calm 0.00"
6:53 PM 74° 43° 33
%
10
mi
1022.7
mb
11,000
ft
Calm 0.00"
5:53 PM 78° 41° 27
%
10
mi
1023.0
mb
NE
50°
3
mph
0.00"
4:53 PM 76° 40° 27
%
10
mi
1023.4
mb
ESE
120°
5
mph
0.00"